Home   Weather   Laval   Past weeks

Flag for Canada Past Weather in Laval, Quebec, Canada — Yesterday and Last 2 Weeks

Now
25 °F

Passing clouds.


Feels Like: 19 °F
Forecast: 22 / 28 °F
Wind: 5 mph from West

Location: Montreal / Mirabel

Current Time: Jan 17, 2017 at 4:12:26 am

Latest Report: Jan 17, 2017 at 3:00 am


Visibility: 20 mi

Pressure: 30.23 "Hg

Humidity: 93%

Dew Point: 23 °F

Location of LavalLocation

Past Weather in Laval — Graph

°F

Laval Temperature Yesterday

Maximum temperature yesterday: 34 °F (at 3:00 pm)
Minimum temperature yesterday: 3 °F (at 2:00 am)
Average temperature yesterday: 21 °F

High & Low Weather Summary for the Past Weeks

 TemperatureHumidityPressure
High39 °F (Jan 11, 5:00 am)100% (Jan 3, 9:00 am)30.81 "Hg (Jan 3, 9:00 am)
Low-17 °F (Jan 9, 8:00 am)41% (Jan 13, 2:00 pm)29.25 "Hg (Jan 4, 5:00 pm)
Average16 °F83%30.12 "Hg
* Reported Jan 2 3:00 am — Jan 17 3:00 am, Laval, Weather by CustomWeather, © 2017

Note: Actual official high and low records may vary slightly from our data, if they occured in-between our weather recording intervals... More about our weather records

Advertising

Laval Weather History for the Previous 24 Hours

Scroll right to see more
 ConditionsComfort  
Time TempWeatherWind HumidityBarometerVisibility
3:00 am
Tue, Jan 17
25 °FPassing clouds.5 mph93%30.23 "Hg20 mi
2:00 am27 °FPassing clouds.3 mph86%30.22 "Hg20 mi
1:00 am28 °FOvercast.5 mph86%30.22 "Hg20 mi
12:00 am28 °FMostly cloudy.8 mph86%30.22 "Hg20 mi
11:00 pm
Mon, Jan 16
28 °FMostly cloudy.7 mph86%30.22 "Hg25 mi
10:00 pm30 °FPassing clouds.7 mph86%30.21 "Hg20 mi
9:00 pm30 °FPassing clouds.8 mph86%30.21 "Hg25 mi
8:00 pm30 °FPassing clouds.10 mph86%30.21 "Hg15 mi
7:00 pm32 °FPassing clouds.9 mph75%30.19 "Hg20 mi
6:00 pm32 °FPassing clouds.9 mph75%30.18 "Hg20 mi
5:00 pm32 °FPassing clouds.6 mph75%30.17 "Hg20 mi
4:00 pm34 °FScattered clouds.10 mph70%30.14 "Hg20 mi
3:00 pm34 °FScattered clouds.14 mph70%30.14 "Hg20 mi
2:00 pm32 °FScattered clouds.13 mph75%30.14 "Hg20 mi
1:00 pm30 °FScattered clouds.12 mph80%30.17 "Hg20 mi
12:00 pm28 °FPartly sunny.10 mph74%30.19 "Hg15 mi
11:00 am25 °FScattered clouds.10 mph74%30.22 "Hg25 mi
10:00 am23 °FMostly cloudy.10 mph80%30.24 "Hg20 mi
9:00 am18 °FMostly cloudy.6 mph86%30.25 "Hg25 mi
8:00 am16 °FMostly cloudy.6 mph86%30.27 "Hg25 mi
7:00 am12 °FMostly cloudy.6 mph85%30.29 "Hg25 mi
6:00 am10 °FPassing clouds.8 mph85%30.31 "Hg25 mi
5:00 am9 °FPassing clouds.2 mph85%30.32 "Hg25 mi
4:00 am3 °FPassing clouds.5 mph85%30.33 "Hg25 mi
Weather by CustomWeather, © 2017

See weather overviewHow to use our weather pages